Simultaneous Nadir Overpasses (SNOs) Predictions

Prediction of SNOs between AQUA and GOES-15 Satellite Orbit:

Table of predicted SNOs for the next 14.0 days since TLE Epoch: 10/18/2013
Index Date Time (AQUA) AQUA Lat,Lon GOES-15 Lat,Lon Distance(km) Time Diff (sec)
1 10/20/2013 10:19:34 -0.57,-131.09 0.19,-134.69 409.42 80
2 10/20/2013 22:40:57 -0.54,-136.28 -0.16,-134.61 190.23 80
3 10/22/2013 22:28:42 0.12,-133.31 -0.16,-134.51 137.70 80
4 10/23/2013 10:49:56 0.95,-138.47 0.14,-134.55 444.62 80
5 10/24/2013 22:16:25 0.68,-130.32 -0.17,-134.42 465.28 80
6 10/25/2013 10:37:40 0.38,-135.48 0.14,-134.45 117.18 80
7 10/27/2013 10:25:24 -0.28,-132.51 0.14,-134.35 209.98 80
8 10/27/2013 22:46:46 -0.81,-137.69 -0.11,-134.25 390.60 80
9 10/29/2013 22:34:28 -0.25,-134.70 -0.11,-134.14 63.67 80
10 10/31/2013 22:22:11 0.40,-131.72 -0.11,-134.03 262.85 80
11 11/01/2013 10:43:25 0.70,-136.87 0.09,-134.07 319.38 80




NCC Satellite Simultaneous Nadir Overpasses (SNOs) Prediction Service
